Weather History for KCSG - September, 2013

Change the Weather History Date:

Friday, September 13, 2013

  Actual Average Record
Temperature  
Mean Temperature 82 °F 78 °F  
Max Temperature 91 °F 87 °F 97 °F (1991)
Min Temperature 72 °F 68 °F 53 °F (1968)
Degree Days  
Heating Degree Days 0 0  
Month to date heating degree days 0 0  
Since 1 July heating degree days 0 0  
Cooling Degree Days 17 13  
Month to date cooling degree days 230 183  
Year to date cooling degree days 2014 2055  
Growing Degree Days 32 (Base 50)    
Moisture  
Dew Point 67 °F    
Average Humidity 66    
Maximum Humidity 84    
Minimum Humidity 47    
Precipitation  
Precipitation 0.00 in 0.10 in 1.21 in (1966)
Month to date precipitation T 1.39  
Year to date precipitation 50.37 34.13  
Sea Level Pressure  
Sea Level Pressure 29.86 in    
Wind  
Wind Speed 5 mph (NNW)    
Max Wind Speed 14 mph    
Max Gust Speed 20 mph    
Visibility 9 miles    
Events      
T = Trace of Precipitation, MM = Missing Value Source: NWS Daily Summary

Daily Weather History Graph

Daily Weather History Graph

Search for Another Location

Airport or City:

Trip Planner

Search our weather history database for the weather conditions in past years. The results will help you decide how hot, cold, wet, or windy it might be!

Date:

Astronomy

Sep. 13, 2013 Rise Set
Actual Time 7:22 AM EDT 7:48 PM EDT
Civil Twilight 6:57 AM EDT 8:12 PM EDT
Nautical Twilight 6:28 AM EDT 8:41 PM EDT
Astronomical Twilight 5:59 AM EDT 9:11 PM EDT
Moon 3:23 PM EDT (9/13) 1:05 AM EDT (9/13)
Length of Visible Light 13h 15m
Length of Day
12h 25m
First Quarter, 61% of the Moon is Illuminated
Sep 13
First Quarter
Sep 19
Full
Sep 26
Last Quarter
Oct 4
New
Oct 11
First Quarter

Hourly Weather History & Observations

Time (EDT) Temp. Heat Index Dew Point Humidity Pressure Visibility Wind Dir Wind Speed Gust Speed Precip Events Conditions
12:51 AM 79.0 °F - 66.9 °F 66% 29.92 in 9.0 mi NW 4.6 mph - N/A   Clear
1:51 AM 78.1 °F - 66.0 °F 66% 29.90 in 9.0 mi Calm Calm - N/A   Clear
2:51 AM 77.0 °F - 66.9 °F 71% 29.88 in 9.0 mi Calm Calm - N/A   Clear
3:51 AM 75.9 °F - 66.9 °F 74% 29.88 in 8.0 mi NNE 5.8 mph - N/A   Clear
4:51 AM 75.0 °F - 66.9 °F 76% 29.88 in 8.0 mi Calm Calm - N/A   Clear
5:51 AM 73.9 °F - 66.9 °F 79% 29.88 in 8.0 mi Calm Calm - N/A   Scattered Clouds
6:51 AM 73.9 °F - 66.9 °F 79% 29.88 in 7.0 mi Calm Calm - N/A   Clear
7:51 AM 73.0 °F - 68.0 °F 84% 29.88 in 5.0 mi NW 3.5 mph - N/A   Haze
8:51 AM 78.1 °F - 66.9 °F 68% 29.89 in 7.0 mi NNW 3.5 mph - N/A   Clear
9:51 AM 81.0 °F 83.3 °F 66.9 °F 62% 29.89 in 9.0 mi NW 5.8 mph - N/A   Clear
10:51 AM 82.9 °F 85.8 °F 68.0 °F 60% 29.89 in 9.0 mi NNW 6.9 mph - N/A   Clear
11:51 AM 86.0 °F 90.1 °F 69.1 °F 57% 29.89 in 9.0 mi Variable 6.9 mph - N/A   Clear
12:51 PM 88.0 °F 92.1 °F 69.1 °F 53% 29.88 in 8.0 mi West 8.1 mph - N/A   Clear
1:51 PM 89.1 °F 93.7 °F 69.1 °F 52% 29.86 in 9.0 mi WNW 10.4 mph - N/A   Clear
2:51 PM 91.0 °F 95.2 °F 68.0 °F 47% 29.83 in 9.0 mi NNW 10.4 mph - N/A   Partly Cloudy
3:51 PM 89.1 °F 93.7 °F 69.1 °F 52% 29.81 in 9.0 mi North 9.2 mph 19.6 mph N/A   Scattered Clouds
4:51 PM 88.0 °F 91.4 °F 68.0 °F 51% 29.80 in 9.0 mi North 9.2 mph - N/A   Mostly Cloudy
5:51 PM 87.1 °F 90.6 °F 68.0 °F 53% 29.80 in 10.0 mi NNW 6.9 mph - N/A   Mostly Cloudy
6:51 PM 84.0 °F 88.4 °F 70.0 °F 63% 29.81 in 8.0 mi SW 4.6 mph - N/A   Clear
7:51 PM 84.9 °F 87.6 °F 66.9 °F 55% 29.81 in 10.0 mi NNW 3.5 mph - N/A   Clear
8:51 PM 79.0 °F - 71.1 °F 77% 29.84 in 8.0 mi Calm Calm - N/A   Clear
9:51 PM 82.0 °F 83.1 °F 63.0 °F 52% 29.85 in 10.0 mi North 5.8 mph - N/A   Clear
10:51 PM 78.1 °F - 62.1 °F 58% 29.86 in 10.0 mi North 5.8 mph - N/A   Clear
11:51 PM 75.9 °F - 61.0 °F 60% 29.87 in 10.0 mi North 5.8 mph - N/A   Clear